Time,TemperatureF,DewpointF,PressureIn,WindDirection,WindDirectionDegrees,WindSpeedMPH,WindSpeedGustMPH,Humidity,HourlyPrecipIn,Conditions,Clouds,dailyrainin,SoftwareType,DateUTC
2013-07-08 00:00:00,72.0,68.6,29.11,WNW,292,1.0,1.0,89,0.00,,,0.00,Wunderground v.1.15,2013-07-08 04:00:00,
2013-07-08 00:05:00,72.0,68.6,29.11,WNW,290,1.0,1.0,89,0.00,,,0.00,Wunderground v.1.15,2013-07-08 04:05:00,
2013-07-08 00:10:00,72.0,68.6,29.11,NW,313,1.0,1.0,89,0.00,,,0.00,Wunderground v.1.15,2013-07-08 04:10:00,
2013-07-08 00:15:00,72.1,69.0,29.11,NW,325,1.0,2.0,90,0.00,,,0.00,Wunderground v.1.15,2013-07-08 04:15:00,
2013-07-08 00:20:00,72.0,68.9,29.11,NW,304,1.0,1.0,90,0.00,,,0.00,Wunderground v.1.15,2013-07-08 04:20:00,
2013-07-08 00:25:00,72.0,68.9,29.11,WNW,290,1.0,1.0,90,0.00,,,0.00,Wunderground v.1.15,2013-07-08 04:25:00,
2013-07-08 00:30:00,72.0,68.9,29.11,WNW,299,1.0,1.0,90,0.00,,,0.00,Wunderground v.1.15,2013-07-08 04:30:00,
2013-07-08 00:35:00,72.0,68.9,29.11,West,281,1.0,1.0,90,0.00,,,0.00,Wunderground v.1.15,2013-07-08 04:35:00,
2013-07-08 00:40:00,72.0,68.9,29.11,NW,306,1.0,1.0,90,0.00,,,0.00,Wunderground v.1.15,2013-07-08 04:40:00,
2013-07-08 00:45:00,71.9,68.8,29.10,WNW,294,0.0,1.0,90,0.00,,,0.00,Wunderground v.1.15,2013-07-08 04:45:00,
2013-07-08 00:50:00,71.8,68.7,29.10,WNW,292,1.0,1.0,90,0.00,,,0.00,Wunderground v.1.15,2013-07-08 04:50:00,
2013-07-08 00:55:00,71.7,68.6,29.11,NW,304,1.0,1.0,90,0.00,,,0.00,Wunderground v.1.15,2013-07-08 04:55:00,
2013-07-08 01:00:00,71.6,68.5,29.11,NW,321,1.0,1.0,90,0.00,,,0.00,Wunderground v.1.15,2013-07-08 05:00:00,
2013-07-08 01:10:00,71.6,68.8,29.11,NW,305,1.0,9.0,91,0.00,,,0.00,Wunderground v.1.15,2013-07-08 05:10:00,
2013-07-08 01:15:00,71.6,68.8,29.11,WNW,296,1.0,9.0,91,0.00,,,0.00,Wunderground v.1.15,2013-07-08 05:15:00,
2013-07-08 01:20:00,71.6,68.8,29.11,WNW,296,1.0,9.0,91,0.00,,,0.00,Wunderground v.1.15,2013-07-08 05:20:00,
2013-07-08 01:25:00,71.6,68.8,29.11,NW,311,1.0,9.0,91,0.00,,,0.00,Wunderground v.1.15,2013-07-08 05:25:00,
2013-07-08 01:30:00,71.6,68.8,29.11,NW,306,2.0,9.0,91,0.00,,,0.00,Wunderground v.1.15,2013-07-08 05:30:00,
2013-07-08 01:40:00,71.6,68.8,29.11,WNW,292,1.0,9.0,91,0.00,,,0.00,Wunderground v.1.15,2013-07-08 05:40:00,
2013-07-08 01:45:00,71.6,68.8,29.11,WNW,296,1.0,9.0,91,0.00,,,0.00,Wunderground v.1.15,2013-07-08 05:45:00,
2013-07-08 01:50:00,71.6,68.8,29.11,WNW,292,0.0,9.0,91,0.00,,,0.00,Wunderground v.1.15,2013-07-08 05:50:00,
2013-07-08 01:55:00,71.6,68.8,29.11,NW,307,0.0,9.0,91,0.00,,,0.00,Wunderground v.1.15,2013-07-08 05:55:00,
2013-07-08 02:00:00,71.6,69.2,29.11,NW,317,0.0,9.0,92,0.00,,,0.00,Wunderground v.1.15,2013-07-08 06:00:00,
2013-07-08 02:05:00,71.7,69.3,29.11,NNW,338,1.0,9.0,92,0.00,,,0.00,Wunderground v.1.15,2013-07-08 06:05:00,
2013-07-08 02:15:00,71.7,69.3,29.11,NW,319,1.0,9.0,92,0.00,,,0.00,Wunderground v.1.15,2013-07-08 06:15:00,
2013-07-08 02:20:00,71.7,69.3,29.11,NNW,337,2.0,9.0,92,0.00,,,0.00,Wunderground v.1.15,2013-07-08 06:20:00,
2013-07-08 02:25:00,71.7,69.3,29.11,NNW,329,1.0,9.0,92,0.00,,,0.00,Wunderground v.1.15,2013-07-08 06:25:00,
2013-07-08 02:30:00,71.7,69.3,29.11,NW,326,1.0,9.0,92,0.00,,,0.00,Wunderground v.1.15,2013-07-08 06:30:00,
2013-07-08 02:35:00,71.7,69.3,29.11,WNW,297,1.0,9.0,92,0.00,,,0.00,Wunderground v.1.15,2013-07-08 06:35:00,
2013-07-08 02:44:00,71.7,69.3,29.11,NNW,342,1.0,9.0,92,0.00,,,0.00,Wunderground v.1.15,2013-07-08 06:44:00,
2013-07-08 02:49:00,71.8,69.3,29.11,NNW,343,2.0,9.0,92,0.00,,,0.00,Wunderground v.1.15,2013-07-08 06:49:00,
2013-07-08 02:59:00,71.8,69.3,29.12,NW,314,0.0,9.0,92,0.00,,,0.00,Wunderground v.1.15,2013-07-08 06:59:00,
2013-07-08 03:05:00,71.8,69.3,29.11,NW,323,0.0,9.0,92,0.00,,,0.00,Wunderground v.1.15,2013-07-08 07:05:00,
2013-07-08 03:10:00,71.8,69.3,29.12,NNW,334,0.0,9.0,92,0.00,,,0.00,Wunderground v.1.15,2013-07-08 07:10:00,
2013-07-08 03:15:00,71.7,69.6,29.12,North,5,1.0,9.0,93,0.00,,,0.00,Wunderground v.1.15,2013-07-08 07:15:00,
2013-07-08 03:20:00,71.7,69.6,29.12,NNW,347,1.0,1.0,93,0.00,,,0.00,Wunderground v.1.15,2013-07-08 07:20:00,
2013-07-08 03:29:00,71.6,69.5,29.12,NNW,344,0.0,9.0,93,0.00,,,0.00,Wunderground v.1.15,2013-07-08 07:29:00,
2013-07-08 03:34:00,71.5,69.4,29.12,NNW,344,0.0,9.0,93,0.00,,,0.00,Wunderground v.1.15,2013-07-08 07:34:00,
2013-07-08 03:39:00,71.5,69.4,29.12,NNW,344,0.0,9.0,93,0.00,,,0.00,Wunderground v.1.15,2013-07-08 07:39:00,
2013-07-08 03:45:00,71.4,69.6,29.12,NNW,343,0.0,9.0,94,0.00,,,0.00,Wunderground v.1.15,2013-07-08 07:45:00,
2013-07-08 03:50:00,71.4,69.3,29.12,NNW,343,0.0,9.0,93,0.00,,,0.00,Wunderground v.1.15,2013-07-08 07:50:00,
2013-07-08 03:55:00,71.4,69.6,29.12,NNW,343,0.0,9.0,94,0.00,,,0.00,Wunderground v.1.15,2013-07-08 07:55:00,
2013-07-08 04:00:00,71.3,69.5,29.12,NNW,343,0.0,9.0,94,0.00,,,0.00,Wunderground v.1.15,2013-07-08 08:00:00,
2013-07-08 04:05:00,71.3,69.5,29.12,NNW,343,0.0,9.0,94,0.00,,,0.00,Wunderground v.1.15,2013-07-08 08:05:00,
2013-07-08 04:10:00,71.3,69.5,29.12,NNW,342,0.0,9.0,94,0.00,,,0.00,Wunderground v.1.15,2013-07-08 08:10:00,
2013-07-08 04:15:00,71.2,69.4,29.12,NNW,329,0.0,9.0,94,0.00,,,0.00,Wunderground v.1.15,2013-07-08 08:15:00,
2013-07-08 04:20:00,71.1,69.3,29.12,NNW,329,0.0,9.0,94,0.00,,,0.00,Wunderground v.1.15,2013-07-08 08:20:00,
2013-07-08 04:25:00,71.1,69.3,29.12,NNW,329,0.0,9.0,94,0.00,,,0.00,Wunderground v.1.15,2013-07-08 08:25:00,
2013-07-08 04:30:00,71.2,69.4,29.12,NNW,329,0.0,9.0,94,0.00,,,0.00,Wunderground v.1.15,2013-07-08 08:30:00,
2013-07-08 04:35:00,71.2,69.4,29.12,NW,307,0.0,9.0,94,0.00,,,0.00,Wunderground v.1.15,2013-07-08 08:35:00,
2013-07-08 04:40:00,71.1,69.3,29.11,NW,306,0.0,9.0,94,0.00,,,0.00,Wunderground v.1.15,2013-07-08 08:40:00,
2013-07-08 04:45:00,71.0,69.2,29.11,WNW,299,0.0,9.0,94,0.00,,,0.00,Wunderground v.1.15,2013-07-08 08:45:00,
2013-07-08 04:55:00,71.0,69.2,29.11,WNW,303,1.0,9.0,94,0.00,,,0.00,Wunderground v.1.15,2013-07-08 08:55:00,
2013-07-08 05:00:00,71.0,69.2,29.11,WNW,298,0.0,9.0,94,0.00,,,0.00,Wunderground v.1.15,2013-07-08 09:00:00,
2013-07-08 05:05:00,70.9,69.1,29.11,WNW,283,1.0,9.0,94,0.00,,,0.00,Wunderground v.1.15,2013-07-08 09:05:00,
2013-07-08 05:10:00,70.9,69.4,29.12,WNW,290,2.0,2.0,95,0.00,,,0.00,Wunderground v.1.15,2013-07-08 09:10:00,
2013-07-08 05:15:00,70.9,69.4,29.12,WNW,297,1.0,3.0,95,0.00,,,0.00,Wunderground v.1.15,2013-07-08 09:15:00,
2013-07-08 05:25:00,70.9,69.4,29.13,WNW,297,0.0,9.0,95,0.00,,,0.00,Wunderground v.1.15,2013-07-08 09:25:00,
2013-07-08 05:30:00,70.9,69.4,29.13,NW,314,0.0,9.0,95,0.00,,,0.00,Wunderground v.1.15,2013-07-08 09:30:00,
2013-07-08 05:35:00,70.8,69.3,29.13,NW,311,0.0,9.0,95,0.00,,,0.00,Wunderground v.1.15,2013-07-08 09:35:00,
2013-07-08 05:40:00,70.8,69.3,29.13,NW,311,0.0,9.0,95,0.00,,,0.00,Wunderground v.1.15,2013-07-08 09:40:00,
2013-07-08 05:45:00,70.8,69.3,29.14,NNW,337,0.0,9.0,95,0.00,,,0.00,Wunderground v.1.15,2013-07-08 09:45:00,
2013-07-08 05:50:00,70.8,69.3,29.14,NNW,333,1.0,1.0,95,0.00,,,0.00,Wunderground v.1.15,2013-07-08 09:50:00,
2013-07-08 06:00:00,70.9,69.4,29.14,NNW,334,1.0,9.0,95,0.00,,,0.00,Wunderground v.1.15,2013-07-08 10:00:00,
2013-07-08 06:05:00,70.9,69.4,29.14,NNW,336,1.0,9.0,95,0.00,,,0.00,Wunderground v.1.15,2013-07-08 10:05:00,
2013-07-08 06:10:00,70.9,69.4,29.14,NNW,329,0.0,9.0,95,0.00,,,0.00,Wunderground v.1.15,2013-07-08 10:10:00,
2013-07-08 06:15:00,70.9,69.4,29.14,NW,317,0.0,9.0,95,0.00,,,0.00,Wunderground v.1.15,2013-07-08 10:15:00,
2013-07-08 06:20:00,70.9,69.4,29.14,NNW,338,0.0,9.0,95,0.00,,,0.00,Wunderground v.1.15,2013-07-08 10:20:00,
2013-07-08 06:30:00,71.0,69.5,29.14,NW,304,0.0,9.0,95,0.00,,,0.00,Wunderground v.1.15,2013-07-08 10:30:00,
2013-07-08 06:35:00,71.0,69.5,29.14,NW,309,0.0,9.0,95,0.00,,,0.00,Wunderground v.1.15,2013-07-08 10:35:00,
2013-07-08 06:40:00,71.1,69.6,29.14,NW,309,0.0,9.0,95,0.00,,,0.00,Wunderground v.1.15,2013-07-08 10:40:00,
2013-07-08 06:45:00,71.2,69.7,29.14,NW,322,0.0,9.0,95,0.00,,,0.00,Wunderground v.1.15,2013-07-08 10:45:00,
2013-07-08 06:50:00,71.2,69.7,29.14,NW,325,0.0,9.0,95,0.00,,,0.00,Wunderground v.1.15,2013-07-08 10:50:00,
2013-07-08 06:55:00,71.2,69.7,29.15,NW,324,0.0,9.0,95,0.00,,,0.00,Wunderground v.1.15,2013-07-08 10:55:00,
2013-07-08 07:04:00,71.3,69.8,29.15,NNW,329,1.0,9.0,95,0.00,,,0.00,Wunderground v.1.15,2013-07-08 11:04:00,
2013-07-08 07:09:00,71.4,69.9,29.15,NNW,336,1.0,9.0,95,0.00,,,0.00,Wunderground v.1.15,2013-07-08 11:09:00,
2013-07-08 07:14:00,71.5,70.0,29.15,NNW,340,2.0,9.0,95,0.00,,,0.00,Wunderground v.1.15,2013-07-08 11:14:00,
2013-07-08 07:19:00,71.6,70.1,29.15,NNW,341,2.0,2.0,95,0.00,,,0.00,Wunderground v.1.15,2013-07-08 11:19:00,
2013-07-08 07:24:00,71.8,70.3,29.15,NNW,339,1.0,9.0,95,0.00,,,0.00,Wunderground v.1.15,2013-07-08 11:24:00,
2013-07-08 07:30:00,72.0,70.5,29.15,NW,325,0.0,9.0,95,0.00,,,0.00,Wunderground v.1.15,2013-07-08 11:30:00,
2013-07-08 07:35:00,72.1,70.3,29.15,NNW,327,0.0,9.0,94,0.00,,,0.00,Wunderground v.1.15,2013-07-08 11:35:00,
2013-07-08 07:40:00,72.1,70.3,29.15,NW,313,0.0,9.0,94,0.00,,,0.00,Wunderground v.1.15,2013-07-08 11:40:00,
2013-07-08 07:45:00,72.3,70.5,29.15,NNW,329,0.0,9.0,94,0.00,,,0.00,Wunderground v.1.15,2013-07-08 11:45:00,
2013-07-08 07:50:00,72.4,70.6,29.16,NNE,17,0.0,9.0,94,0.00,,,0.00,Wunderground v.1.15,2013-07-08 11:50:00,
2013-07-08 07:55:00,72.4,70.6,29.16,NNW,333,0.0,9.0,94,0.00,,,0.00,Wunderground v.1.15,2013-07-08 11:55:00,
2013-07-08 08:05:00,72.6,70.5,29.16,NNW,333,0.0,9.0,93,0.00,,,0.00,Wunderground v.1.15,2013-07-08 12:05:00,
2013-07-08 08:10:00,72.8,70.7,29.16,NNW,343,0.0,9.0,93,0.00,,,0.00,Wunderground v.1.15,2013-07-08 12:10:00,
2013-07-08 08:15:00,72.8,70.7,29.16,NNW,337,0.0,9.0,93,0.00,,,0.00,Wunderground v.1.15,2013-07-08 12:15:00,
2013-07-08 08:20:00,73.0,70.9,29.16,NW,323,0.0,9.0,93,0.00,,,0.00,Wunderground v.1.15,2013-07-08 12:20:00,
2013-07-08 08:25:00,73.1,71.0,29.16,WNW,300,0.0,9.0,93,0.00,,,0.00,Wunderground v.1.15,2013-07-08 12:25:00,
2013-07-08 08:30:00,73.2,70.7,29.16,WNW,288,0.0,9.0,92,0.00,,,0.00,Wunderground v.1.15,2013-07-08 12:30:00,
2013-07-08 08:40:00,73.5,71.0,29.16,NW,311,0.0,9.0,92,0.00,,,0.00,Wunderground v.1.15,2013-07-08 12:40:00,
2013-07-08 08:45:00,73.6,71.1,29.17,NW,313,0.0,9.0,92,0.00,,,0.00,Wunderground v.1.15,2013-07-08 12:45:00,
2013-07-08 08:50:00,73.8,71.3,29.17,NNW,329,0.0,9.0,92,0.00,,,0.00,Wunderground v.1.15,2013-07-08 12:50:00,
2013-07-08 08:55:00,73.9,71.1,29.17,NW,312,0.0,9.0,91,0.00,,,0.00,Wunderground v.1.15,2013-07-08 12:55:00,
2013-07-08 09:00:00,74.0,71.2,29.17,NW,313,0.0,9.0,91,0.00,,,0.00,Wunderground v.1.15,2013-07-08 13:00:00,
2013-07-08 09:10:00,74.2,71.4,29.16,NW,323,0.0,9.0,91,0.00,,,0.00,Wunderground v.1.15,2013-07-08 13:10:00,
2013-07-08 09:15:00,74.4,71.6,29.17,NNW,346,1.0,9.0,91,0.00,,,0.00,Wunderground v.1.15,2013-07-08 13:15:00,
2013-07-08 09:20:00,74.6,71.5,29.17,West,267,1.0,9.0,90,0.00,,,0.00,Wunderground v.1.15,2013-07-08 13:20:00,
2013-07-08 09:25:00,75.2,72.1,29.16,NW,306,2.0,9.0,90,0.00,,,0.00,Wunderground v.1.15,2013-07-08 13:25:00,
2013-07-08 09:30:00,76.5,73.0,29.16,WNW,292,2.0,2.0,89,0.00,,,0.00,Wunderground v.1.15,2013-07-08 13:30:00,
2013-07-08 09:35:00,77.9,73.4,29.16,WNW,296,1.0,9.0,86,0.00,,,0.00,Wunderground v.1.15,2013-07-08 13:35:00,
2013-07-08 09:45:00,78.7,72.7,29.16,NW,308,1.0,3.0,82,0.00,,,0.00,Wunderground v.1.15,2013-07-08 13:45:00,
2013-07-08 09:50:00,78.8,72.8,29.16,NW,324,1.0,1.0,82,0.00,,,0.00,Wunderground v.1.15,2013-07-08 13:50:00,
2013-07-08 09:55:00,78.6,72.6,29.16,WNW,298,0.0,9.0,82,0.00,,,0.00,Wunderground v.1.15,2013-07-08 13:55:00,
2013-07-08 10:00:00,78.5,72.9,29.16,WNW,294,0.0,9.0,83,0.00,,,0.00,Wunderground v.1.15,2013-07-08 14:00:00,
2013-07-08 10:05:00,79.0,73.4,29.16,WNW,292,1.0,9.0,83,0.00,,,0.00,Wunderground v.1.15,2013-07-08 14:05:00,
2013-07-08 10:15:00,80.6,73.9,29.16,WNW,301,0.0,9.0,80,0.00,,,0.00,Wunderground v.1.15,2013-07-08 14:15:00,
2013-07-08 10:20:00,80.8,72.9,29.16,WNW,299,0.0,9.0,77,0.00,,,0.00,Wunderground v.1.15,2013-07-08 14:20:00,
2013-07-08 10:25:00,80.9,73.8,29.16,WNW,302,0.0,9.0,79,0.00,,,0.00,Wunderground v.1.15,2013-07-08 14:25:00,
2013-07-08 10:30:00,81.9,74.7,29.16,NNW,341,1.0,9.0,79,0.00,,,0.00,Wunderground v.1.15,2013-07-08 14:30:00,